This is the latest recevied weather packets stored in our database for station/object KD2DXJ. If no packets are shown the sender has not sent any weather packets the latest 10 day(s).
| Time | Temp. | Humidity | Pressure | Rain* | Wind** | Luminosity | Snow |
|---|---|---|---|---|---|---|---|
| 1778088694 | 6.67° C | 96% | 1008.7 hPa | 0 mm | - | 118 W/m² | - |
| 1778088391 | 6.67° C | 96% | 1008.9 hPa | 0 mm | - | 133 W/m² | - |
| 1778088087 | 6.67° C | 96% | 1008.9 hPa | 0 mm | - | 152 W/m² | - |
| 1778087785 | 6.67° C | 97% | 1009 hPa | 0 mm | - | 150 W/m² | - |
| 1778087483 | 6.67° C | 97% | 1009.1 hPa | 0 mm | - | 157 W/m² | - |
| 1778087180 | 6.67° C | 96% | 1009.1 hPa | 0 mm | - | 186 W/m² | - |
| 1778086877 | 6.67° C | 96% | 1009 hPa | 0 mm | - | 174 W/m² | - |
| 1778086576 | 6.67° C | 96% | 1009 hPa | 0 mm | - | 147 W/m² | - |
| 1778086271 | 6.11° C | 96% | 1009 hPa | 0 mm | - | 180 W/m² | - |
| 1778085968 | 6.11° C | 97% | 1009.1 hPa | 0 mm | - | 196 W/m² | - |
| 1778085666 | 6.11° C | 97% | 1009.2 hPa | 0 mm | - | 157 W/m² | - |
| 1778085361 | 6.11° C | 97% | 1009.3 hPa | 0 mm | - | 197 W/m² | - |
| 1778085058 | 6.11° C | 97% | 1009.2 hPa | 1.78 mm | - | 185 W/m² | - |
| 1778084754 | 6.11° C | 97% | 1009.5 hPa | 1.78 mm | - | 209 W/m² | - |
| 1778084451 | 6.11° C | 98% | 1009.2 hPa | 0 mm | - | 202 W/m² | - |
| 1778084149 | 6.11° C | 98% | 1009.2 hPa | 0 mm | - | 143 W/m² | - |
| 1778083846 | 6.11° C | 98% | 1009 hPa | 1.27 mm | - | 121 W/m² | - |
| 1778083543 | 6.11° C | 98% | 1009.1 hPa | 1.27 mm | - | 110 W/m² | - |
| 1778083240 | 6.11° C | 98% | 1008.9 hPa | 0 mm | - | 82 W/m² | - |
| 1778082939 | 6.11° C | 98% | 1008.8 hPa | 0 mm | - | 111 W/m² | - |
| 1778081829 | 6.11° C | 98% | 1008.7 hPa | 0 mm | - | 87 W/m² | - |
| 1778081527 | 6.11° C | 98% | 1008.8 hPa | 0 mm | - | 76 W/m² | - |
| 1778081224 | 6.11° C | 98% | 1008.8 hPa | 0 mm | - | 84 W/m² | - |
| 1778080921 | 6.11° C | 98% | 1008.7 hPa | 1.78 mm | - | 101 W/m² | - |
| 1778080620 | 6.11° C | 98% | 1008.7 hPa | 1.78 mm | - | 97 W/m² | - |
* Rain latest hour (hover to see other rain measurements)
** Current wind speed in m/s (hover to see current wind gust speed)